CW3643 Weather Reports


time (UTC)temp
C
wind
direction
speed
KPH
gust
KPH
rain 1hr
cm
rain 24hr
cm
rain mn
cm
humidity
%
barometer
mb
20181023091101 17 57 6.4 12.9 0.00 0.00 0.00 71 1026.1
20181023090019 17 297 4.8 12.9 0.00 0.00 0.00 74 1026.1
20181023085030 17 47 4.8 14.5 0.00 0.00 0.00 73 1026.1
20181023084016 17 43 8.0 14.5 0.00 0.00 0.00 74 1026.0
20181023083056 17 117 8.0 12.9 0.00 0.00 0.00 74 1025.8
20181023082015 17 76 9.7 17.7 0.00 0.00 0.00 76 1025.6
20181023081017 17 30 8.0 12.9 0.00 0.00 0.00 77 1025.5
20181023080015 17 59 6.4 17.7 0.00 0.00 0.00 78 1025.5
20181023075026 16 51 11.3 17.7 0.00 0.00 0.00 80 1025.1
20181023074027 17 80 8.0 17.7 0.00 0.00 0.00 80 1025.0
20181023073011 17 66 8.0 16.1 0.00 0.00 0.00 80 1025.0
20181023072012 17 50 6.4 16.1 0.00 0.00 0.00 81 1024.8
20181023065022 16 40 8.0 12.9 0.00 0.00 0.00 82 1024.5
20181023064026 17 55 4.8 12.9 0.00 0.00 0.00 83 1024.4
20181023063012 17 65 8.0 14.5 0.00 0.00 0.00 84 1024.3
20181023062017 17 36 9.7 14.5 0.00 0.00 0.00 85 1024.1
20181023061022 17 46 4.8 11.3 0.00 0.00 0.00 86 1024.1
20181023060030 17 82 6.4 12.9 0.00 0.00 0.00 86 1024.1
20181023055053 17 16 6.4 11.3 0.00 0.00 0.00 87 1024.0
20181023054017 17 66 4.8 11.3 0.00 0.00 0.00 87 1024.0
20181023051014 17 88 6.4 11.3 0.00 0.00 0.00 87 1023.8
20181023050014 17 59 6.4 12.9 0.00 0.00 0.00 86 1023.7
20181023045015 17 65 3.2 9.7 0.00 0.00 0.00 86 1023.7
20181023044020 17 62 4.8 8.0 0.00 0.00 0.00 86 1023.6
20181023043021 17 60 4.8 6.4 0.00 0.00 0.00 85 1023.4
20181023042024 17 109 1.6 8.0 0.00 0.00 0.00 85 1023.4
20181023041031 17 62 1.6 9.7 0.00 0.00 0.00 84 1023.4
20181023040024 17 57 4.8 9.7 0.00 0.00 0.00 83 1023.3
20181023035018 17 66 4.8 9.7 0.00 0.00 0.00 83 1023.2
20181023034019 17 55 1.6 8.0 0.00 0.00 0.00 83 1023.1
20181023033020 17 34 4.8 6.4 0.00 0.00 0.00 83 1023.1
20181023032017 17 52 1.6 8.0 0.00 0.00 0.00 83 1023.1
20181023031021 17 66 4.8 9.7 0.00 0.00 0.00 82 1023.1
20181023030027 17 39 1.6 9.7 0.00 0.00 0.00 82 1023.1
20181023025013 18 57 6.4 9.7 0.00 0.00 0.00 82 1023.1
20181023024020 18 49 526.3 526.3 0.00 0.00 0.00 82 1022.9
20181023023022 18 64 4.8 9.7 0.00 0.00 0.00 82 1023.1
20181023022030 17 26 4.8 8.0 0.00 0.00 0.00 83 1023.1
20181023021013 17 26 4.8 8.0 0.00 0.00 0.00 83 1023.3
20181023020025 17 26 4.8 8.0 0.00 0.00 0.00 84 1023.3
20181023015030 17 26 3.2 6.4 0.00 0.00 0.00 84 1023.3
20181023014025 17 22 3.2 4.8 0.00 0.00 0.00 84 1023.4
20181023013029 17 340 0.0 3.2 0.00 0.00 0.00 84 1023.4
20181023012022 17 340 0.0 3.2 0.00 0.00 0.00 84 1023.4
20181023011021 17 340 0.0 3.2 0.00 0.00 0.00 84 1023.4
20181023010018 17 340 1.6 3.2 0.00 0.00 0.00 83 1023.4
20181023004015 18 338 1.6 3.2 0.00 0.00 0.00 83 1023.4
20181023003013 18 338 0.0 3.2 0.00 0.00 0.00 82 1023.5
20181023002017 18 338 3.2 4.8 0.00 0.00 0.00 81 1023.5
20181023001021 18 338 0.0 0.0 0.00 0.00 0.00 79 1023.5
20181023000028 18 338 0.0 0.0 0.00 0.00 0.00 77 1023.5
20181022235018 18 338 1.6 8.0 0.00 0.00 0.00 76 1023.5
20181022234023 19 337 0.0 3.2 0.00 0.00 0.00 74 1023.6
20181022233013 19 337 0.0 1.6 0.00 0.00 0.00 74 1023.7
20181022232017 19 337 0.0 3.2 0.00 0.00 0.00 74 1023.7
20181022231021 19 337 0.0 3.2 0.00 0.00 0.00 74 1023.7
20181022230017 19 337 1.6 4.8 0.00 0.00 0.00 73 1023.7
20181022225022 20 337 3.2 6.4 0.00 0.00 0.00 73 1023.8
20181022223026 20 337 1.6 6.4 0.00 0.00 0.00 72 1024.0
20181022222019 20 337 0.0 4.8 0.00 0.00 0.00 72 1023.9
20181022221029 20 337 3.2 6.4 0.00 0.00 0.00 72 1024.0
20181022220017 20 336 1.6 4.8 0.00 0.10 0.00 71 1023.9
20181022215012 20 336 4.8 6.4 0.00 0.10 0.00 71 1023.9
20181022214013 20 336 4.8 8.0 0.00 0.10 0.00 71 1023.9
20181022212021 20 340 6.4 9.7 0.00 0.10 0.00 71 1023.8
20181022211023 20 353 4.8 8.0 0.00 0.10 0.00 71 1023.6
20181022205030 20 349 6.4 9.7 0.00 0.10 0.00 70 1023.5
20181022204022 20 301 6.4 11.3 0.00 0.10 0.00 70 1023.3
20181022203026 20 347 1.6 11.3 0.00 0.10 0.00 70 1023.2
20181022202020 21 351 6.4 11.3 0.00 0.10 0.00 70 1023.2
20181022201019 21 355 3.2 14.5 0.00 0.10 0.00 69 1023.2
20181022200028 21 301 3.2 9.7 0.00 0.10 0.00 69 1023.2
20181022195022 21 348 6.4 14.5 0.00 0.10 0.00 69 1023.2
20181022194025 21 345 8.0 16.1 0.00 0.10 0.00 69 1023.2
20181022193020 21 341 8.0 14.5 0.00 0.10 0.00 68 1023.2
20181022192014 21 339 4.8 12.9 0.00 0.10 0.00 68 1023.2
20181022191013 21 310 4.8 14.5 0.00 0.10 0.00 67 1023.1
20181022185017 21 330 9.7 17.7 0.00 0.10 0.00 66 1023.1
20181022184023 22 342 8.0 14.5 0.00 0.10 0.00 65 1023.0
20181022183023 22 352 8.0 16.1 0.00 0.10 0.00 65 1022.8
20181022182013 22 354 9.7 14.5 0.00 0.10 0.00 64 1022.6
20181022181018 22 341 9.7 14.5 0.00 0.10 0.00 64 1022.5
20181022180024 22 334 9.7 16.1 0.00 0.10 0.00 63 1022.5
20181022175015 22 330 9.7 17.7 0.00 0.10 0.00 62 1022.5
20181022174020 22 357 9.7 20.9 0.00 0.10 0.00 62 1022.5
20181022173016 23 336 11.3 19.3 0.00 0.10 0.00 61 1022.4
20181022172022 23 325 14.5 19.3 0.00 0.10 0.00 60 1022.4
20181022171027 23 351 8.0 19.3 0.00 0.10 0.00 60 1022.3
20181022170016 23 353 11.3 24.1 0.00 0.10 0.00 60 1022.3
20181022165027 23 323 14.5 22.5 0.00 0.10 0.00 60 1022.4
20181022163019 24 340 14.5 20.9 0.00 0.10 0.00 58 1022.4
20181022162024 25 346 12.9 19.3 0.00 0.10 0.00 55 1022.3
20181022161017 25 69 3.2 4.8 0.00 0.10 0.00 45 1022.4
20181022160027 25 70 1.6 6.4 0.00 0.10 0.00 46 1022.5
20181022155014 25 44 1.6 6.4 0.00 0.10 0.00 48 1022.6
20181022153019 25 43 1.6 4.8 0.00 0.10 0.00 48 1022.8
20181022151021 25 349 4.8 8.0 0.00 0.10 0.00 48 1022.8
20181022150029 25 115 3.2 8.0 0.00 0.10 0.00 50 1022.7
20181022145020 24 111 3.2 8.0 0.00 0.10 0.00 52 1022.7
20181022142019 24 24 3.2 8.0 0.00 0.10 0.00 57 1023.0
20181022141023 24 284 1.6 8.0 0.00 0.10 0.00 57 1023.0
20181022140011 23 330 3.2 4.8 0.00 0.10 0.00 58 1023.1
20181022135020 23 82 3.2 8.0 0.00 0.10 0.00 59 1023.2
20181022134110 23 61 4.8 6.4 0.00 0.10 0.00 59 1023.3
20181022133029 23 152 3.2 8.0 0.00 0.10 0.00 60 1023.4
20181022132015 23 89 4.8 11.3 0.00 0.10 0.00 61 1023.5
20181022131023 23 48 1.6 6.4 0.00 0.10 0.00 61 1023.4
20181022130259 22 67 1.6 8.0 0.00 0.10 0.00 62 1023.4
20181022122016 21 147 4.8 6.4 0.00 0.10 0.00 70 1023.8
20181022121022 21 59 4.8 11.3 0.00 0.10 0.00 70 1024.0
20181022120024 21 123 3.2 8.0 0.00 0.10 0.00 73 1024.1
20181022115031 20 50 4.8 12.9 0.00 0.10 0.00 73 1024.2
20181022114013 20 108 8.0 11.3 0.00 0.10 0.00 75 1024.2
20181022113027 20 30 3.2 8.0 0.00 0.10 0.00 76 1024.4
20181022112030 20 52 3.2 11.3 0.00 0.10 0.00 77 1024.4
20181022111017 20 120 4.8 11.3 0.00 0.10 0.00 78 1024.4
20181022110021 20 114 4.8 11.3 0.00 0.10 0.00 78 1024.5
20181022105021 19 28 4.8 11.3 0.00 0.10 0.00 79 1024.7
20181022104025 18 45 1.6 17.7 0.00 0.10 0.00 82 1024.7
20181022103027 18 51 11.3 17.7 0.00 0.10 0.00 82 1024.6
20181022102015 18 76 8.0 12.9 0.00 0.10 0.00 85 1024.6
20181022101030 18 135 4.8 12.9 0.00 0.10 0.00 88 1024.5
20181022100013 17 42 6.4 11.3 0.00 0.10 0.00 88 1024.6
20181022095023 17 270 6.4 14.5 0.00 0.10 0.00 89 1024.6
20181022094028 17 181 4.8 12.9 0.00 0.10 0.00 89 1024.4
20181022093016 17 8 4.8 14.5 0.00 0.10 0.00 90 1024.5
20181022092027 17 16 3.2 11.3 0.00 0.10 0.00 90 1024.4